CDT,Max TemperatureF,Mean TemperatureF,Min TemperatureF,Max Dew PointF,MeanDew PointF,Min DewpointF,Max Humidity, Mean Humidity, Min Humidity, Max Sea Level PressureIn, Mean Sea Level PressureIn, Min Sea Level PressureIn, Max VisibilityMiles, Mean VisibilityMiles, Min VisibilityMiles, Max Wind SpeedMPH, Mean Wind SpeedMPH, Max Gust SpeedMPH,PrecipitationIn, CloudCover, Events, WindDirDegrees
2012-10-1,73,64,55,54,50,46,82,62,43,29.88,29.84,29.80,10,10,10,16,7,24,0.00,0,,348
2012-10-2,71,60,50,50,46,45,82,63,41,29.98,29.93,29.87,10,10,5,14,5,21,0.00,0,,334
2012-10-3,75,60,46,52,48,41,87,62,41,30.07,30.01,29.97,10,10,8,15,5,23,0.00,1,,169
2012-10-4,80,68,55,59,54,48,77,61,42,30.20,30.14,30.07,10,10,10,18,8,24,0.00,2,,164
2012-10-5,64,53,41,55,44,34,82,74,67,30.25,30.16,30.11,10,9,2,15,8,24,0.05,7,Thunderstorm,21
2012-10-6,48,44,37,36,32,30,81,69,50,30.32,30.28,30.25,10,10,10,15,7,21,0.02,6,,44
2012-10-7,51,42,33,34,31,27,87,63,43,30.33,30.28,30.21,10,10,10,10,3,,0.00,4,,349
2012-10-8,59,44,30,39,34,25,87,66,44,30.25,30.18,30.09,10,8,2,16,4,18,0.00,0,,181
2012-10-9,64,52,39,52,44,34,82,70,55,30.10,30.02,29.92,10,10,0,21,8,28,0.00,4,,184
2012-10-10,64,54,44,46,39,34,87,57,32,30.30,30.21,30.11,10,9,0,12,5,17,0.00,3,,65
2012-10-11,73,65,57,61,50,37,77,63,42,30.20,30.15,30.09,10,10,10,14,7,17,0.00,7,,169
2012-10-12,69,64,60,63,58,55,88,79,68,30.31,30.19,30.13,10,9,3,16,7,26,1.19,4,Thunderstorm,149
2012-10-13,75,68,62,64,61,57,88,80,65,30.13,29.98,29.79,10,7,3,26,10,36,1.08,6,Thunderstorm,165
2012-10-14,71,62,51,59,51,45,88,65,41,30.10,29.96,29.76,10,10,6,20,14,28,0.00,2,,259
2012-10-15,78,62,46,50,46,39,82,57,34,30.10,30.03,29.95,10,9,0,13,4,,0.00,0,,201
2012-10-16,77,66,55,46,44,43,67,48,31,29.96,29.82,29.68,10,10,10,25,11,31,0.00,1,,181
2012-10-17,71,61,50,63,52,36,78,69,54,29.79,29.62,29.52,10,10,10,23,13,37,0.00,5,,206
2012-10-18,64,53,42,37,30,23,66,44,21,29.90,29.84,29.80,10,9,4,25,9,37,0.00,2,,264
2012-10-19,60,54,48,36,29,25,47,39,29,29.89,29.85,29.80,10,9,4,21,11,28,0.00,1,,280
2012-10-20,,,,,,,,,,29.90,29.85,29.79,10,10,7,16,6,23,0.00,0,,144
2012-10-21,,,,,,,,,,29.91,29.86,29.83,10,10,10,23,10,32,0.00,4,,157
2012-10-22,,,,,,,,,,29.97,29.95,29.90,10,10,9,26,17,33,0.02,4,Thunderstorm,176
2012-10-23,,,,,,,,,,29.97,29.93,29.89,10,10,10,25,14,31,0.00,6,,178
2012-10-24,,,,,,,,,,30.00,29.93,29.84,10,10,10,23,13,31,0.00,1,,172
2012-10-25,,,,,,,,,,30.20,29.98,29.82,10,10,5,23,15,31,0.00,6,,281
2012-10-26,,,,,,,,,,30.36,30.30,30.19,10,10,10,20,13,25,0.00,4,,20
2012-10-27,,,,,,,,,,30.36,30.28,30.20,10,10,9,10,5,17,0.00,0,,20
2012-10-28,,,,,,,,,,30.31,30.26,30.22,10,10,5,12,3,,0.00,0,,23
2012-10-29,,,,,,,,,,30.34,30.24,30.13,10,10,10,7,2,,0.00,2,,126
2012-10-30,,,,,,,,,,30.13,30.02,29.93,10,10,5,9,5,,0.00,2,,125
2012-10-31,,,,,,,,,,30.07,30.02,29.95,10,10,6,9,5,,0.00,0,,51